Regional Weather Roundup
Issued by NWS Charleston, SC

Current Version | Previous Version | Graphics & Text | Print | Product List | Glossary On
Versions: 1 2 3 4 5 6 7 8 9 10 11 12 13 14 15 16 17 18 19 20 21 22 23 24 25 26 27 28 29 30 31 32 33 34 35 36 37 38 39 40 41 42 43 44 45 46 47 48 49 50
000 ASUS42 KCHS 180327 RWRCHS REGIONAL WEATHER ROUNDUP NATIONAL WEATHER SERVICE CHARLESTON SC 1000 PM EST TUE JAN 17 2017 NOTE: "FAIR" INDICATES FEW OR NO CLOUDS BELOW 12,000 FEET WITH NO SIGNIFICANT WEATHER AND/OR OBSTRUCTIONS TO VISIBILITY. NOT ALL STATIONS ARE QUALITY CONTROLLED. USE DATA WITH CAUTION... ESPECIALLY DEWPOINT OBSERVATIONS. SCZ027-030-031-034>040-042>050-180400- ...SOUTHEAST SOUTH CAROLINA... CITY SKY/WX TMP DP RH WIND PRES REMARKS N CHARLESTON PTCLDY 60 58 92 S9 30.18F WATERFRONT PRK N/A 61 60 97 VRB3 30.19S MOUNT PLEASANT FAIR 61 61 100 S6 30.19F JOHNS ISLAND FAIR 61 59 94 S5 30.19F PINOPOLIS N/A 64 61 88 S5 30.09F MONCKS CORNER FAIR 61 57 88 SW6 30.17F SUMMERVILLE FAIR 61 61 100 S3 30.18F BEAUFORT MCAS PTCLDY 61 58 90 S5 30.20S BEAUFORT ARPT FAIR 59 57 94 S6 30.19F HILTON HEAD IS PTCLDY 63 61 94 S10 30.21F WALTERBORO PTCLDY 63 N/A N/A S6 30.18F ALLENDALE FAIR 64 59 82 CALM 30.17R ...SOUTHERN MIDLANDS AND PEE DEE... CITY SKY/WX TMP DP RH WIND PRES REMARKS GEORGETOWN FAIR 59 59 100 SW7 30.18F KINGSTREE FAIR 63 55 77 S5 30.15F ORANGEBURG PTCLDY 60 57 89 SW7 30.15F BARNWELL FAIR 64 59 82 S5 30.16F AIKEN FAIR 63 55 77 S5 30.18F MANNING FAIR 59 55 88 S3 30.15F COLUMBIA PTCLDY 67 55 65 SW9 30.13S SUMTER CLOUDY 64 56 75 SW13 30.11F FLORENCE MOCLDY 62 58 86 S8 30.13F MYRTLE BEACH CLEAR 61 55 82 SW9 30.17F N MYRTLE BEACH PTCLDY 59 58 96 SW13 30.15F $$ GAZ063-065-086>088-099>101-113>116-118-119-134>141-150-180400- ...SOUTHEAST GEORGIA... CITY SKY/WX TMP DP RH WIND PRES REMARKS SAVANNAH ARPT CLEAR 61 57 87 S8 30.20F HUNTER AAF CLEAR 61 60 98 S6 30.18S FORT STEWART CLEAR 62 58 87 CALM 30.18F STATESBORO CLEAR 58 58 100 CALM 30.19S SYLVANIA CLEAR N/A N/A N/A SW3 30.19S CLAXTON FAIR N/A N/A N/A CALM 30.19F ...CSRA...CENTRAL AND FAR SOUTHEAST GEORGIA... CITY SKY/WX TMP DP RH WIND PRES REMARKS THOMSON PTCLDY 66 59 79 SW3 30.20S AUGUSTA-BUSH MOCLDY 62 55 77 SW6 30.15S AUGUSTA-DANIEL MOCLDY 67 55 65 SW6 30.16S SWAINSBORO FAIR 64 57 77 CALM 30.19S VIDALIA PTCLDY 63 61 94 SW5 30.20S EASTMAN FAIR 64 52 64 SW3 30.22S HAZLEHURST FAIR 65 62 88 SW7 30.20R ALMA CLEAR 58 58 100 S3 30.21S WAYCROSS CLEAR 63 63 100 SW3 30.21S JESUP FAIR 61 57 88 SW3 30.21S BAXLEY FAIR 63 63 100 CALM 30.20S BRUNSWICK CLEAR 63 63 100 S5 30.22F SAINT SIMONS CLEAR 63 60 90 S3 30.22S $$ SCZ027-028-034-036>038-045-046-048>050-GAZ119-141-180400- ...LAKE AND SUPPLEMENTAL COASTAL OBSERVATIONS... STATION/POSITION TIME TEMP WIND PRES WAVE SWELL AIR SEA DIR/SP/G HT/PER HT/PER/DIR (UTC) (F) (DEG/KT/KT) (MB) (FT/S) (FT/S/D) WINYAH BAY 0245 60 220/ 5 1022.0S LAKE MURRAY 0230 65 220/ 10/ 11 1020.0S ACE BASIN NERRS 0245 57 CALM 1023.0S FORT PULASKI 0300 60 56 210/ 4/ 5 1022.9 SAPELO ISLAND 0300 60 170/ 5 1023.0 $$ ANZ835-935-AMZ111-154-330-350-352-354-370-450-454-472-180400- ...C-MAN AND BUOY OBSERVATIONS... STATION/POSITION TIME TEMP WIND PRES WAVE SWELL AIR SEA DIR/SP/G HT/PER HT/PER/DIR (UTC) (F) (DEG/KT/KT) (MB) (FT/S) (FT/S/D) BUOY 41004 0250 70 70 220/ 14/ 17 1022.0F 3/10 2/120/10 BUOY 41008 0250 63 60 180/ 8/ 8 1023.0R 2/ 9 2/ 80/ 9 FOLLY BEACH CMAN 0300 60 230/ 5/ 7 1023.0F CAPERS NEARSHORE 0208 58 54 220/ 8/ 8 1022.5R FRIPP NEARSHORE 0308 60 56 210/ 8/ 10 1022.1F STATION/POSITION TIME TEMP WIND PRES WAVE SWELL AIR SEA DIR/SP/G HT/PER HT/PER/DIR (UTC) (F) (DEG/KT/KT) (MB) (FT/S) (FT/S/D) 5E ST. MARYS GA 0300 62 N/A 2/ 9 FRYING PAN BUOY 0310 72 72 220/ 19/ 23 1021.4 BUOY 41025 0250 71 73 230/ 21/ 23 1019.3F 4/ 4 2/ 90/ 8 CAPE LOOKOUT NC 0300 64 220/ 10/ 13 1019.7F BUOY 41002 0250 72 72 210/ 12/ 14 1023.7R 3/ 8 2/ 70/ 8 BUOY 41010 NOT AVBL ST AUGUSTINE FL 0300 66 64 180/ 7/ 8 1024.7R $$

USA.gov is the U.S. government's official web portal to all federal, state and local government web resources and services.